GW0019 Weather Reports


time (UTC)temp
C
wind
direction
speed
KPH
gust
KPH
rain 1hr
cm
rain 24hr
cm
rain mn
cm
humidity
%
barometer
mb
20260831175114 33 218 9.7 20.9 0.00 0.00 0.00 77 1021.2
20260831174613 33 185 4.8 17.7 0.00 0.00 0.00 77 1021.4
20260831174108 32 201 6.4 19.3 0.00 0.00 0.00 76 1021.3
20260831173606 33 194 4.8 11.3 0.00 0.00 0.00 77 1021.3
20260831173103 32 259 3.2 16.1 0.00 0.00 0.00 77 1021.4
20260831172602 32 196 16.1 20.9 0.00 0.00 0.00 76 1021.2
20260831172057 32 191 8.0 17.7 0.00 0.00 0.00 76 1021.5
20260831171553 32 215 9.7 17.7 0.00 0.00 0.00 76 1021.5
20260831171050 32 275 3.2 16.1 0.00 0.00 0.00 76 1021.4
20260831170546 32 249 14.5 17.7 0.00 0.00 0.00 76 1021.5
20260831170044 32 200 14.5 20.9 0.00 0.00 0.00 76 1021.8
20260831165543 32 215 4.8 24.1 0.00 0.00 0.00 76 1021.7
20260831165040 32 334 3.2 16.1 0.00 0.00 0.00 76 1021.7
20260831164536 32 223 14.5 17.7 0.00 0.00 0.00 76 1022.2
20260831164031 31 210 3.2 19.3 0.00 0.00 0.00 76 1022.2
20260831163526 31 210 3.2 19.3 0.00 0.00 0.00 76 1022.0
20260831163021 31 210 3.2 19.3 0.00 0.00 0.00 76 1021.9
20260831162520 32 222 4.8 8.0 0.00 0.00 0.00 76 1021.8
20260831162018 31 223 6.4 12.9 0.00 0.00 0.00 76 1022.0
20260831161515 31 223 6.4 12.9 0.00 0.00 0.00 76 1021.9
20260831161011 30 248 8.0 12.9 0.00 0.00 0.00 76 1022.4
20260831160510 30 248 8.0 12.9 0.00 0.00 0.00 76 1022.0
20260831160006 30 248 8.0 12.9 0.00 0.00 0.00 76 1022.0
20260831155500 30 248 8.0 12.9 0.00 0.00 0.00 76 1021.9
20260831154955 30 248 8.0 12.9 0.00 0.00 0.00 76 1022.0
20260831154452 30 248 8.0 12.9 0.00 0.00 0.00 76 1022.0
20260831153950 30 248 8.0 12.9 0.00 0.00 0.00 76 1021.8
20260831153446 30 248 8.0 19.3 0.00 0.00 0.00 76 1022.0
20260831152943 30 213 6.4 17.7 0.00 0.00 0.00 76 1022.0
20260831152437 30 197 11.3 24.1 0.00 0.00 0.00 76 1022.2
20260831151933 30 190 3.2 14.5 0.00 0.00 0.00 76 1022.2
20260831151431 30 244 16.1 20.9 0.00 0.00 0.00 76 1022.0
20260831150927 30 249 4.8 19.3 0.00 0.00 0.00 76 1022.0
20260831150422 29 228 6.4 17.7 0.00 0.00 0.00 76 1021.9
20260831145922 29 150 3.2 22.5 0.00 0.00 0.00 76 1021.8
20260831145418 28 241 11.3 14.5 0.00 0.00 0.00 76 1022.0
20260831144914 28 226 11.3 17.7 0.00 0.00 0.00 75 1021.8
20260831144409 28 246 16.1 17.7 0.00 0.00 0.00 75 1021.8
20260831143904 28 216 8.0 14.5 0.00 0.00 0.00 75 1022.0
20260831143359 27 197 8.0 17.7 0.00 0.00 0.00 75 1021.9
20260831142854 27 208 3.2 9.7 0.00 0.00 0.00 75 1021.5
20260831142349 27 197 6.4 12.9 0.00 0.00 0.00 75 1021.7
20260831141844 27 249 6.4 12.9 0.00 0.00 0.00 75 1022.0
20260831141338 27 202 9.7 9.7 0.00 0.00 0.00 75 1021.8
20260831140834 26 197 4.8 8.0 0.00 0.00 0.00 75 1021.8
20260831140328 26 218 4.8 6.4 0.00 0.00 0.00 75 1021.8
20260831135826 26 202 4.8 6.4 0.00 0.00 0.00 75 1021.9
20260831135321 25 200 4.8 8.0 0.00 0.00 0.00 75 1021.8
20260831134817 25 148 0.0 6.4 0.00 0.00 0.00 75 1021.7
20260831134314 25 208 8.0 8.0 0.00 0.00 0.00 75 1021.9
20260831133812 25 203 4.8 6.4 0.00 0.00 0.00 75 1021.9
20260831133307 24 182 4.8 4.8 0.00 0.00 0.00 75 1021.9
20260831132802 24 217 3.2 6.4 0.00 0.00 0.00 74 1021.8
20260831132257 24 199 0.0 6.4 0.00 0.00 0.00 74 1022.0
20260831131756 24 186 0.0 4.8 0.00 0.00 0.00 75 1021.7
20260831131253 24 163 0.0 3.2 0.00 0.00 0.00 74 1021.6
20260831130748 23 208 4.8 4.8 0.00 0.00 0.00 74 1021.6
20260831130243 23 200 1.6 3.2 0.00 0.00 0.00 74 1021.6
20260831125742 23 208 0.0 4.8 0.00 0.00 0.00 74 1021.5
20260831125238 23 173 0.0 3.2 0.00 0.00 0.00 74 1021.5
20260831124732 22 157 0.0 3.2 0.00 0.00 0.00 74 1021.2
20260831124229 22 160 0.0 4.8 0.00 0.00 0.00 74 1021.4
20260831123728 21 192 1.6 3.2 0.00 0.00 0.00 74 1021.2
20260831123227 20 206 0.0 4.8 0.00 0.00 0.00 74 1021.0
20260831122721 20 209 0.0 4.8 0.00 0.00 0.00 74 1021.0
20260831122218 20 220 3.2 3.2 0.00 0.00 0.00 74 1020.7
20260831121717 20 221 3.2 3.2 0.00 0.00 0.00 74 1021.0
20260831121214 20 200 1.6 1.6 0.00 0.00 0.00 74 1020.7
20260831120709 -17 0.0 0.0 0.00 0.00 0.00 1020.7
20260831120203 -17 0.0 0.0 0.00 0.00 0.00 1020.6
20260831115659 -17 0.0 0.0 0.00 0.00 0.00 1020.7
20260831115155 -17 0.0 0.0 0.00 0.00 0.00 1020.4
20260831114654 -17 0.0 0.0 0.00 0.00 0.00 1020.5
20260831114148 -17 0.0 0.0 0.00 0.00 0.00 1020.6
20260831113648 -17 0.0 0.0 0.00 0.00 0.00 1020.5
20260831113143 -17 0.0 0.0 0.00 0.00 0.00 1020.1
20260831112642 -17 0.0 0.0 0.00 0.00 0.00 1020.3
20260831112138 -17 0.0 0.0 0.00 0.00 0.00 1020.2
20260831111634 -17 0.0 0.0 0.00 0.00 0.00 1020.6
20260831111129 -17 0.0 0.0 0.00 0.00 0.00 1020.2
20260831110625 -17 0.0 0.0 0.00 0.00 0.00 1020.2
20260831110120 -17 0.0 0.0 0.00 0.00 0.00 1020.2
20260831105619 -17 0.0 0.0 0.00 0.00 0.00 1020.2
20260831105114 -17 0.0 0.0 0.00 0.00 0.00 1020.3
20260831104610 -17 0.0 0.0 0.00 0.00 0.00 1020.2
20260831104106 -17 0.0 0.0 0.00 0.00 0.00 1020.4
20260831103601 -17 0.0 0.0 0.00 0.00 0.00 1020.2
20260831103056 -17 0.0 0.0 0.00 0.00 0.00 1020.3
20260831102550 -17 0.0 0.0 0.00 0.00 0.00 1020.3
20260831102046 -17 0.0 0.0 0.00 0.00 0.00 1020.1
20260831101540 -17 0.0 0.0 0.00 0.00 0.00 1020.2
20260831101037 -17 0.0 0.0 0.00 0.00 0.00 1020.3
20260831100532 -17 0.0 0.0 0.00 0.00 0.00 1020.3
20260831100028 -17 0.0 0.0 0.00 0.00 0.00 1020.5
20260831095526 -17 0.0 0.0 0.00 0.00 0.00 1020.2
20260831095021 -17 0.0 0.0 0.00 0.00 0.00 1020.1
20260831094518 -17 0.0 0.0 0.00 0.00 0.00 1020.2
20260831094013 -17 0.0 0.0 0.00 0.00 0.00 1020.2
20260831093513 -17 0.0 0.0 0.00 0.00 0.00 1020.1
20260831093010 -17 0.0 0.0 0.00 0.00 0.00 1020.2
20260831092505 -17 0.0 0.0 0.00 0.00 0.00 1020.1
20260831092001 -17 0.0 0.0 0.00 0.00 0.00 1019.9
20260831091455 -17 0.0 0.0 0.00 0.00 0.00 1020.1
20260831090950 -17 0.0 0.0 0.00 0.00 0.00 1019.9
20260831090447 -17 0.0 0.0 0.00 0.00 0.00 1020.0
20260831085942 -17 0.0 0.0 0.00 0.00 0.00 1019.9
20260831085438 -17 0.0 0.0 0.00 0.00 0.00 1020.2
20260831084937 -17 0.0 0.0 0.00 0.00 0.00 1019.8
20260831084433 -17 0.0 0.0 0.00 0.00 0.00 1019.6
20260831083930 -17 0.0 0.0 0.00 0.00 0.00 1019.7
20260831083425 -17 0.0 0.0 0.00 0.00 0.00 1019.6
20260831082924 -17 0.0 0.0 0.00 0.00 0.00 1019.8
20260831082423 -17 0.0 0.0 0.00 0.00 0.00 1019.8
20260831081919 -17 0.0 0.0 0.00 0.00 0.00 1019.7
20260831081415 -17 0.0 0.0 0.00 0.00 0.00 1019.8
20260831080910 -17 0.0 0.0 0.00 0.00 0.00 1019.7
20260831080405 -17 0.0 0.0 0.00 0.00 0.00 1019.4
20260831075901 -17 0.0 0.0 0.00 0.00 0.00 1019.6
20260831075356 -17 0.0 0.0 0.00 0.00 0.00 1019.7
20260831074851 -17 0.0 0.0 0.00 0.00 0.00 1019.4
20260831074350 -17 0.0 0.0 0.00 0.00 0.00 1019.6
20260831073846 -17 0.0 0.0 0.00 0.00 0.00 1019.6
20260831073344 -17 0.0 0.0 0.00 0.00 0.00 1019.8
20260831072840 -17 0.0 0.0 0.00 0.00 0.00 1019.7
20260831072335 -17 0.0 0.0 0.00 0.00 0.00 1019.7
20260831071832 -17 0.0 0.0 0.00 0.00 0.00 1019.8
20260831071330 -17 0.0 0.0 0.00 0.00 0.00 1019.7
20260831070826 -17 0.0 0.0 0.00 0.00 0.00 1020.0
20260831070324 -17 0.0 0.0 0.00 0.00 0.00 1019.7
20260831065824 -17 0.0 0.0 0.00 0.00 0.00 1019.9
20260831065322 -17 0.0 0.0 0.00 0.00 0.00 1020.0
20260831064817 -17 0.0 0.0 0.00 0.00 0.00 1019.7
20260831064312 -17 0.0 0.0 0.00 0.00 0.00 1019.8
20260831063808 -17 0.0 0.0 0.00 0.00 0.00 1020.0
20260831063258 -17 0.0 0.0 0.00 0.00 0.00 1019.8
20260831062757 -17 0.0 0.0 0.00 0.00 0.00 1020.1
20260831062253 -17 0.0 0.0 0.00 0.00 0.00 1019.9
20260831061751 -17 0.0 0.0 0.00 0.00 0.00 1020.1
20260831061246 -17 0.0 0.0 0.00 0.00 0.00 1020.0
20260831060742 -17 0.0 0.0 0.00 0.00 0.00 1020.1
20260831060242 -17 0.0 0.0 0.00 0.00 0.00 1019.9
20260831055741 -17 0.0 0.0 0.00 0.00 0.00 1020.1
20260831055242 -17 0.0 0.0 0.00 0.00 0.00 1019.9
20260831054737 -17 0.0 0.0 0.00 0.00 0.00 1020.0
20260831054232 -17 0.0 0.0 0.00 0.00 0.00 1020.0
20260831053731 -17 0.0 0.0 0.00 0.00 0.00 1019.9
20260831053229 -17 0.0 0.0 0.00 0.00 0.00 1019.8
20260831052724 -17 0.0 0.0 0.00 0.00 0.00 1019.8
20260831052223 -17 0.0 0.0 0.00 0.00 0.00 1019.7
20260831051721 -17 0.0 0.0 0.00 0.00 0.00 1019.8
20260831051220 -17 0.0 0.0 0.00 0.00 0.00 1019.7
20260831050715 -17 0.0 0.0 0.00 0.00 0.00 1019.7
20260831050214 -17 0.0 0.0 0.00 0.00 0.00 1019.6
20260831045709 -17 0.0 0.0 0.00 0.00 0.00 1019.9
20260831045203 -17 0.0 0.0 0.00 0.00 0.00 1019.8
20260831044658 -17 0.0 0.0 0.00 0.00 0.00 1019.7
20260831044153 -17 0.0 0.0 0.00 0.00 0.00 1019.5
20260831043649 -17 0.0 0.0 0.00 0.00 0.00 1019.5
20260831043144 -17 0.0 0.0 0.00 0.00 0.00 1019.5
20260831042643 -17 0.0 0.0 0.00 0.00 0.00 1019.5
20260831042138 -17 0.0 0.0 0.00 0.00 0.00 1019.4
20260831041633 26 192 6.4 11.3 0.00 0.00 0.00 75 1019.7
20260831041132 26 192 6.4 11.3 0.00 0.00 0.00 75 1019.6
20260831040628 26 192 6.4 11.3 0.00 0.00 0.00 75 1019.6
20260831040121 26 192 6.4 11.3 0.00 0.00 0.00 75 1019.5
20260831035619 26 192 6.4 11.3 0.00 0.00 0.00 75 1019.5
20260831035114 26 192 6.4 11.3 0.00 0.00 0.00 75 1019.6
20260831034613 26 192 6.4 11.3 0.00 0.00 0.00 75 1019.5
20260831034109 26 192 6.4 11.3 0.00 0.00 0.00 75 1019.6
20260831033604 26 192 6.4 11.3 0.00 0.00 0.00 75 1019.7
20260831033059 26 192 6.4 11.3 0.00 0.00 0.00 75 1019.7
20260831032559 26 192 6.4 11.3 0.00 0.00 0.00 75 1019.3
20260831032054 27 157 8.0 8.0 0.00 0.00 0.00 75 1019.5
20260831031554 27 157 8.0 8.0 0.00 0.00 0.00 75 1019.5
20260831031053 27 157 8.0 8.0 0.00 0.00 0.00 75 1019.5
20260831030553 27 157 8.0 8.0 0.00 0.00 0.00 75 1019.4
20260831030052 27 157 8.0 8.0 0.00 0.00 0.00 75 1019.4
20260831025550 27 157 8.0 8.0 0.00 0.00 0.00 75 1019.5
20260831025046 27 157 8.0 8.0 0.00 0.00 0.00 75 1019.4
20260831024542 -17 0.0 0.0 0.00 0.00 0.00 1019.6
20260831024040 -17 0.0 0.0 0.00 0.00 0.00 1019.5
20260831023539 -17 0.0 0.0 0.00 0.00 0.00 1019.5
20260831023033 -17 0.0 0.0 0.00 0.00 0.00 1019.6
20260831022533 -17 0.0 0.0 0.00 0.00 0.00 1019.4
20260831022028 -17 0.0 0.0 0.00 0.00 0.00 1019.2
20260831021527 -17 0.0 0.0 0.00 0.00 0.00 1019.4
20260831021023 29 200 8.0 8.0 0.00 0.00 0.00 76 1019.3
20260831020518 29 200 8.0 8.0 0.00 0.00 0.00 76 1019.4
20260831020013 29 200 8.0 8.0 0.00 0.00 0.00 76 1019.3
20260831015509 29 200 8.0 8.0 0.00 0.00 0.00 76 1018.8
20260831015004 29 200 8.0 8.0 0.00 0.00 0.00 76 1018.9
20260831014458 29 200 8.0 8.0 0.00 0.00 0.00 76 1019.1
20260831013954 29 200 8.0 8.0 0.00 0.00 0.00 76 1018.9
20260831013450 29 200 8.0 8.0 0.00 0.00 0.00 76 1018.6
20260831012949 29 200 8.0 8.0 0.00 0.00 0.00 76 1018.7
20260831012444 29 200 8.0 8.0 0.00 0.00 0.00 76 1018.4
20260831011938 29 200 8.0 8.0 0.00 0.00 0.00 76 1018.6
20260831011433 29 200 8.0 8.0 0.00 0.00 0.00 76 1018.3
20260831010930 30 177 4.8 4.8 0.00 0.00 0.00 76 1018.2
20260831010429 30 177 4.8 4.8 0.00 0.00 0.00 76 1018.3
20260831005924 -17 0.0 0.0 0.00 0.00 0.00 1018.4
20260831005415 -17 0.0 0.0 0.00 0.00 0.00 1018.1
20260831004909 -17 0.0 0.0 0.00 0.00 0.00 1018.2
20260831004406 -17 0.0 0.0 0.00 0.00 0.00 1018.1
20260831003901 -17 0.0 0.0 0.00 0.00 0.00 1018.1
20260831003357 -17 0.0 0.0 0.00 0.00 0.00 1017.9
20260831002856 -17 0.0 0.0 0.00 0.00 0.00 1017.8
20260831002355 -17 0.0 0.0 0.00 0.00 0.00 1018.0
20260831001851 -17 0.0 0.0 0.00 0.00 0.00 1018.0
20260831001351 -17 0.0 0.0 0.00 0.00 0.00 1018.0
20260831000849 -17 0.0 0.0 0.00 0.00 0.00 1017.7
20260831000344 -17 0.0 0.0 0.00 0.00 0.00 1017.9
20260830235842 -17 0.0 0.0 0.00 0.00 0.00 1017.9
20260830235337 -17 0.0 0.0 0.00 0.00 0.00 1017.9
20260830234833 -17 0.0 0.0 0.00 0.00 0.00 1018.0
20260830234328 -17 0.0 0.0 0.00 0.00 0.00 1018.0
20260830233824 -17 0.0 0.0 0.00 0.00 0.00 1018.1
20260830233319 -17 0.0 0.0 0.00 0.00 0.00 1017.9
20260830232815 -17 0.0 0.0 0.00 0.00 0.00 1018.1
20260830232310 -17 0.0 0.0 0.00 0.00 0.00 1018.2
20260830231807 -17 0.0 0.0 0.00 0.00 0.00 1018.3
20260830231306 34 195 6.4 11.3 0.00 0.00 0.00 77 1018.1
20260830230801 34 195 6.4 11.3 0.00 0.00 0.00 77 1018.0
20260830230257 34 195 6.4 11.3 0.00 0.00 0.00 77 1018.0
20260830225756 34 195 6.4 11.3 0.00 0.00 0.00 77 1017.9
20260830225251 34 195 6.4 11.3 0.00 0.00 0.00 77 1018.0
20260830224750 34 195 6.4 11.3 0.00 0.00 0.00 77 1018.1
20260830224245 34 195 6.4 11.3 0.00 0.00 0.00 77 1017.9
20260830223742 34 195 6.4 11.3 0.00 0.00 0.00 77 1018.1
20260830223238 34 195 6.4 11.3 0.00 0.00 0.00 77 1017.9
20260830222732 34 195 6.4 11.3 0.00 0.00 0.00 77 1018.0
20260830222227 34 195 6.4 11.3 0.00 0.00 0.00 77 1018.0
20260830221717 34 195 6.4 11.3 0.00 0.00 0.00 77 1018.0
20260830221214 35 168 6.4 8.0 0.00 0.00 0.00 77 1018.1
20260830220709 35 168 6.4 8.0 0.00 0.00 0.00 77 1018.0
20260830220208 35 143 8.0 14.5 0.00 0.00 0.00 77 1018.2
20260830215707 35 143 8.0 14.5 0.00 0.00 0.00 77 1018.1
20260830215201 35 143 8.0 14.5 0.00 0.00 0.00 77 1018.1
20260830214657 35 143 8.0 14.5 0.00 0.00 0.00 77 1018.2
20260830214151 35 143 8.0 14.5 0.00 0.00 0.00 77 1018.2
20260830213650 35 143 8.0 14.5 0.00 0.00 0.00 77 1018.1
20260830213146 35 143 8.0 14.5 0.00 0.00 0.00 77 1018.3
20260830212642 35 143 8.0 14.5 0.00 0.00 0.00 77 1018.4
20260830212136 35 143 8.0 14.5 0.00 0.00 0.00 77 1018.4
20260830211631 35 143 8.0 14.5 0.00 0.00 0.00 77 1018.3
20260830211130 34 110 9.7 9.7 0.00 0.00 0.00 77 1018.5
20260830210626 34 110 9.7 9.7 0.00 0.00 0.00 77 1018.4
20260830210125 34 110 9.7 9.7 0.00 0.00 0.00 77 1018.5
20260830205622 34 120 3.2 9.7 0.00 0.00 0.00 77 1018.7
20260830205118 35 196 6.4 12.9 0.00 0.00 0.00 77 1018.6
20260830204618 34 152 6.4 12.9 0.00 0.00 0.00 77 1018.6
20260830204117 35 192 0.0 6.4 0.00 0.00 0.00 77 1018.7
20260830203614 35 192 0.0 6.4 0.00 0.00 0.00 77 1018.8
20260830203113 34 125 6.4 6.4 0.00 0.00 0.00 77 1018.7
20260830202613 34 125 6.4 6.4 0.00 0.00 0.00 77 1018.4
20260830202109 34 125 6.4 6.4 0.00 0.00 0.00 77 1018.7
20260830201608 34 125 6.4 6.4 0.00 0.00 0.00 77 1018.6
20260830201103 34 125 6.4 6.4 0.00 0.00 0.00 77 1019.1
20260830200558 34 125 6.4 6.4 0.00 0.00 0.00 77 1018.9
20260830200057 34 125 6.4 6.4 0.00 0.00 0.00 77 1018.8
20260830195553 33 119 6.4 6.4 0.00 0.00 0.00 77 1019.1
20260830195051 33 188 9.7 12.9 0.00 0.00 0.00 77 1019.1
20260830194551 33 188 9.7 12.9 0.00 0.00 0.00 77 1019.1
20260830194045 33 188 9.7 12.9 0.00 0.00 0.00 77 1019.3
20260830193544 33 188 9.7 12.9 0.00 0.00 0.00 77 1019.4
20260830193040 32 216 8.0 9.7 0.00 0.00 0.00 76 1019.3
20260830192535 32 216 8.0 9.7 0.00 0.00 0.00 76 1019.4
20260830192030 32 216 8.0 9.7 0.00 0.00 0.00 76 1019.4
20260830191525 32 216 8.0 9.7 0.00 0.00 0.00 76 1019.5
20260830191020 32 216 8.0 9.7 0.00 0.00 0.00 76 1019.4
20260830190515 32 216 8.0 9.7 0.00 0.00 0.00 76 1019.5
20260830190010 32 216 8.0 9.7 0.00 0.00 0.00 76 1019.7
20260830185504 32 216 8.0 9.7 0.00 0.00 0.00 76 1019.9
20260830184959 32 180 1.6 9.7 0.00 0.00 0.00 76 1019.6
20260830184459 32 165 1.6 1.6 0.00 0.00 0.00 76 1019.7
20260830183953 32 165 1.6 3.2 0.00 0.00 0.00 76 1019.8
20260830183448 32 201 4.8 12.9 0.00 0.00 0.00 76 1019.9
20260830182943 32 208 3.2 11.3 0.00 0.00 0.00 76 1020.1
20260830182439 31 237 9.7 9.7 0.00 0.00 0.00 76 1020.0
20260830181935 31 237 9.7 9.7 0.00 0.00 0.00 76 1020.3
20260830181431 32 148 3.2 8.0 0.00 0.00 0.00 76 1020.2
20260830180925 31 232 9.7 16.1 0.00 0.00 0.00 76 1020.2
20260830180424 31 232 9.7 16.1 0.00 0.00 0.00 76 1020.3
20260830175923 31 150 3.2 8.0 0.00 0.00 0.00 76 1020.4
20260830175423 31 226 9.7 17.7 0.00 0.00 0.00 76 1020.7